Change the Weather History Date:

Sunday, October 26, 2014

  Actual Average Record
Temperature  
Mean Temperature 50 °F -  
Max Temperature 57 °F 59 °F 82 °F (1963)
Min Temperature 46 °F 39 °F 23 °F (1952)
Degree Days  
Heating Degree Days 14    
Moisture  
Dew Point 38 °F    
Average Humidity 59    
Maximum Humidity 86    
Minimum Humidity 44    
Precipitation  
Precipitation 0.01 in - - ()
Sea Level Pressure  
Sea Level Pressure 29.64 in    
Wind  
Wind Speed 8 mph (West)    
Max Wind Speed 16 mph    
Max Gust Speed 29 mph    
Visibility 10 miles    
Events Rain    
Averages and records for this station are not official NWS values.
T = Trace of Precipitation, MM = Missing Value Source: NWS Daily Summary

Daily Weather History Graph

Daily Weather History Graph

Search for Another Location

Airport or City:

Trip Planner

Search our weather history database for the weather conditions in past years. The results will help you decide how hot, cold, wet, or windy it might be!

Date:

Astronomy

Oct. 26, 2014 Rise Set
Actual Time 7:18 AM EDT 5:56 PM EDT
Civil Twilight 6:49 AM EDT 6:25 PM EDT
Nautical Twilight 6:17 AM EDT 6:57 PM EDT
Astronomical Twilight 5:45 AM EDT 7:29 PM EDT
Moon 9:54 AM EDT (10/26) 8:04 PM EDT (10/26)
Length of Visible Light 11h 35m
Length of Day
10h 38m
Waxing Crescent, 8% of the Moon is Illuminated
Oct 26
Waxing Crescent
Oct 30
First Quarter
Nov 6
Full
Nov 14
Last Quarter
Nov 22
New

Hourly Weather History & Observations

Time (EDT) Temp. Windchill Dew Point Humidity Pressure Visibility Wind Dir Wind Speed Gust Speed Precip Events Conditions
12:53 AM 55.0 °F - 46.0 °F 72% 29.56 in 10.0 mi West 4.6 mph - 0.00 in   Overcast
1:53 AM 53.1 °F - 46.0 °F 77% 29.55 in 10.0 mi West 3.5 mph - N/A   Mostly Cloudy
2:53 AM 46.9 °F - 43.0 °F 86% 29.54 in 7.0 mi SW 5.8 mph - N/A   Clear
3:53 AM 51.1 °F - 41.0 °F 68% 29.58 in 9.0 mi NW 9.2 mph 24.2 mph 0.00 in Rain Light Rain
4:53 AM 46.0 °F 42.5 °F 39.9 °F 79% 29.57 in 10.0 mi WSW 6.9 mph - 0.01 in   Partly Cloudy
5:53 AM 46.0 °F 44.8 °F 39.9 °F 79% 29.59 in 10.0 mi West 3.5 mph - N/A   Clear
6:53 AM 48.9 °F - 37.0 °F 64% 29.57 in 10.0 mi West 10.4 mph 18.4 mph N/A   Clear
7:53 AM 48.9 °F - 37.0 °F 64% 29.58 in 10.0 mi West 8.1 mph - N/A   Clear
8:53 AM 50.0 °F - 37.0 °F 61% 29.60 in 10.0 mi West 11.5 mph 18.4 mph N/A   Clear
9:53 AM 53.1 °F - 35.1 °F 50% 29.60 in 10.0 mi WNW 15.0 mph 25.3 mph N/A   Clear
10:53 AM 55.0 °F - 36.0 °F 49% 29.61 in 10.0 mi WNW 11.5 mph 23.0 mph N/A   Partly Cloudy
11:53 AM 55.0 °F - 35.1 °F 47% 29.61 in 10.0 mi WNW 12.7 mph 25.3 mph N/A   Mostly Cloudy
12:53 PM 55.0 °F - 35.1 °F 47% 29.61 in 10.0 mi West 11.5 mph 23.0 mph N/A   Overcast
1:53 PM 55.9 °F - 34.0 °F 44% 29.61 in 10.0 mi West 16.1 mph 26.5 mph N/A   Mostly Cloudy
2:53 PM 55.9 °F - 35.1 °F 45% 29.62 in 10.0 mi West 10.4 mph 25.3 mph N/A   Partly Cloudy
3:53 PM 55.9 °F - 35.1 °F 45% 29.65 in 10.0 mi West 13.8 mph 20.7 mph N/A   Mostly Cloudy
4:53 PM 55.0 °F - 34.0 °F 45% 29.67 in 10.0 mi WNW 16.1 mph 28.8 mph N/A   Partly Cloudy
5:53 PM 53.1 °F - 35.1 °F 50% 29.68 in 10.0 mi WNW 12.7 mph 24.2 mph N/A   Clear
6:53 PM 52.0 °F - 36.0 °F 54% 29.73 in 10.0 mi WNW 12.7 mph 26.5 mph N/A   Clear
7:53 PM 52.0 °F - 36.0 °F 54% 29.76 in 10.0 mi NW 6.9 mph - N/A   Overcast
8:53 PM 51.1 °F - 37.0 °F 59% 29.77 in 10.0 mi NW 5.8 mph - N/A   Scattered Clouds
9:53 PM 50.0 °F - 36.0 °F 59% 29.80 in 10.0 mi West 5.8 mph - N/A   Mostly Cloudy
10:53 PM 50.0 °F - 37.0 °F 61% 29.81 in 10.0 mi WSW 3.5 mph - N/A   Overcast
11:53 PM 51.1 °F - 37.0 °F 59% 29.81 in 10.0 mi Variable 3.5 mph - N/A   Overcast